Weather History for Bolton Field, OH

Change the Weather History Date:

Thursday, June 13, 2013

  Actual Average Record
Temperature  
Mean Temperature 72 °F -  
Max Temperature 79 °F 78 °F 91 °F (1999)
Min Temperature 64 °F 61 °F 51 °F (2006)
Cooling Degree Days 6    
Growing Degree Days 22 (Base 50)    
Moisture  
Dew Point 62 °F    
Average Humidity 80    
Maximum Humidity 100    
Minimum Humidity 50    
Precipitation  
Precipitation 0.85 in - - ()
Sea Level Pressure  
Sea Level Pressure 29.75 in    
Wind  
Wind Speed 10 mph (WNW)    
Max Wind Speed 18 mph    
Max Gust Speed 48 mph    
Visibility 9 miles    
Events Rain , Thunderstorm    
Averages and records for this station are not official NWS values.
T = Trace of Precipitation, MM = Missing Value Source: NWS Daily Summary

Daily Weather History Graph

Daily Weather History Graph

Search for Another Location

Airport:

Trip Planner

Search our weather history database for the weather conditions in past years. The results will help you decide how hot, cold, wet, or windy it might be!

Date:

Astronomy

Jun. 13, 2013 Rise Set
Actual Time 6:03 AM EDT 9:02 PM EDT
Civil Twilight 5:30 AM EDT 9:34 PM EDT
Nautical Twilight 4:49 AM EDT 10:16 PM EDT
Astronomical Twilight 4:01 AM EDT 11:04 PM EDT
Moon 10:38 AM EDT (6/13) No Moon Set
Length of Visible Light 16h 04m
Length of Day
14h 58m
Waxing Crescent, 21% of the Moon is Illuminated
Jun 13
Waxing Crescent
Jun 16
First Quarter
Jun 23
Full
Jun 30
Last Quarter
Jul 8
New

Hourly Weather History & Observations

Time (EDT) Temp. Dew Point Humidity Pressure Visibility Wind Dir Wind Speed Gust Speed Precip Events Conditions
12:15 AM 79.0 °F 71.8 °F 78% 29.72 in 10.0 mi South 10.4 mph - N/A   Clear
12:35 AM 78.8 °F 72.0 °F 79% 29.71 in 10.0 mi South 12.7 mph 17.3 mph N/A   Clear
12:55 AM 78.6 °F 72.0 °F 80% 29.70 in 10.0 mi SSW 15.0 mph 20.7 mph N/A   Clear
1:15 AM 78.6 °F 71.8 °F 79% 29.68 in 10.0 mi SSW 16.1 mph 23.0 mph N/A   Clear
1:35 AM 79.2 °F 71.8 °F 78% 29.68 in 10.0 mi SSW 16.1 mph 23.0 mph N/A   Clear
1:55 AM 69.4 °F 63.1 °F 80% 29.75 in 5.0 mi WNW 16.1 mph 48.3 mph 0.02 in Rain , Thunderstorm Heavy Thunderstorms and Rain
2:15 AM 65.3 °F 64.4 °F 97% 29.73 in 3.0 mi West 6.9 mph - 0.22 in Rain , Thunderstorm Thunderstorms and Rain
2:35 AM 65.5 °F 64.4 °F 96% 29.73 in 7.0 mi WSW 6.9 mph - 0.31 in Rain , Thunderstorm Heavy Thunderstorms and Rain
2:55 AM 65.3 °F 64.4 °F 97% 29.71 in 5.0 mi West 6.9 mph - 0.42 in Rain , Thunderstorm Rain
3:15 AM 65.3 °F 64.6 °F 98% 29.70 in 7.0 mi Calm Calm - 0.02 in Rain , Thunderstorm Thunderstorms and Rain
3:35 AM 65.3 °F 64.9 °F 99% 29.65 in 5.0 mi ESE 4.6 mph - 0.09 in Rain , Thunderstorm Thunderstorms and Rain
3:55 AM 65.3 °F 65.3 °F 100% 29.66 in 10.0 mi Calm Calm - 0.09 in   Overcast
4:15 AM 65.3 °F 65.3 °F 100% 29.69 in 4.0 mi South 3.5 mph - 0.08 in Rain Light Rain
4:35 AM 65.3 °F 65.1 °F 99% 29.70 in 10.0 mi SW 4.6 mph - 0.09 in Rain , Thunderstorm Thunderstorms and Rain
4:55 AM 64.9 °F 64.9 °F 100% 29.63 in 7.0 mi SSE 5.8 mph - 0.32 in Rain , Thunderstorm Rain
5:15 AM 64.8 °F 64.8 °F 100% 29.59 in 10.0 mi SSE 6.9 mph - N/A   Scattered Clouds
5:35 AM 64.9 °F 64.9 °F 100% 29.63 in 10.0 mi South 12.7 mph - N/A   Scattered Clouds
5:55 AM 64.8 °F 64.8 °F 100% 29.61 in 10.0 mi South 5.8 mph - N/A   Scattered Clouds
6:15 AM 64.9 °F 64.8 °F 99% 29.61 in 10.0 mi SSW 8.1 mph - N/A   Scattered Clouds
6:35 AM 65.7 °F 64.9 °F 98% 29.61 in 10.0 mi WSW 3.5 mph - N/A   Mostly Cloudy
6:55 AM 66.2 °F 65.3 °F 97% 29.62 in 10.0 mi WSW 5.8 mph - N/A   Overcast
7:15 AM 66.6 °F 65.3 °F 96% 29.64 in 10.0 mi West 4.6 mph - N/A   Overcast
7:50 AM 69.8 °F 66.2 °F 88% 29.66 in 10.0 mi West 6.9 mph - N/A   Scattered Clouds
10:00 AM 66.2 °F 64.4 °F 94% 29.69 in 7.0 mi WNW 10.4 mph 18.4 mph N/A Rain Rain
10:50 AM 66.2 °F 64.4 °F 94% 29.69 in 7.0 mi NW 10.4 mph - N/A Rain Light Rain
11:50 AM 66.2 °F 64.4 °F 94% 29.71 in 7.0 mi NNW 13.8 mph 19.6 mph N/A   Overcast
12:47 PM 66.2 °F 62.6 °F 88% 29.75 in 10.0 mi NNW 15.0 mph - N/A   Overcast
1:47 PM 69.8 °F 60.8 °F 73% 29.77 in 10.0 mi North 13.8 mph 23.0 mph N/A   Overcast
2:50 PM 73.4 °F 57.2 °F 57% 29.79 in 10.0 mi North 18.4 mph 24.2 mph N/A   Mostly Cloudy
3:50 PM 73.4 °F 59.0 °F 61% 29.80 in 10.0 mi NNW 13.8 mph 21.9 mph N/A   Mostly Cloudy
4:50 PM 75.2 °F 57.2 °F 53% 29.81 in 10.0 mi NW 13.8 mph 20.7 mph N/A   Mostly Cloudy
5:50 PM 73.4 °F 57.2 °F 57% 29.82 in 10.0 mi NNW 15.0 mph 21.9 mph N/A   Mostly Cloudy
6:50 PM 75.2 °F 55.4 °F 50% 29.82 in 10.0 mi NW 13.8 mph 20.7 mph N/A   Mostly Cloudy
7:35 PM 73.9 °F 54.3 °F 50% 29.83 in 10.0 mi NNW 15.0 mph 20.7 mph N/A   Clear
7:55 PM 72.5 °F 54.9 °F 54% 29.84 in 10.0 mi NNW 10.4 mph 16.1 mph N/A   Clear
8:15 PM 72.0 °F 55.2 °F 55% 29.85 in 10.0 mi NNW 9.2 mph - N/A   Clear
8:35 PM 71.2 °F 55.2 °F 57% 29.85 in 10.0 mi NW 10.4 mph - N/A   Scattered Clouds
8:55 PM 70.3 °F 55.2 °F 59% 29.86 in 10.0 mi NW 9.2 mph - N/A   Scattered Clouds
9:15 PM 68.9 °F 55.6 °F 62% 29.86 in 10.0 mi NW 5.8 mph - N/A   Scattered Clouds
9:35 PM 68.2 °F 55.6 °F 64% 29.86 in 10.0 mi WNW 4.6 mph - N/A   Scattered Clouds
9:55 PM 68.0 °F 55.8 °F 65% 29.87 in 10.0 mi WNW 4.6 mph - N/A   Scattered Clouds
10:15 PM 67.5 °F 56.7 °F 68% 29.88 in 10.0 mi WNW 3.5 mph - N/A   Mostly Cloudy
10:35 PM 66.7 °F 58.3 °F 74% 29.89 in 10.0 mi WNW 3.5 mph - N/A   Overcast
10:55 PM 67.6 °F 57.0 °F 69% 29.89 in 10.0 mi WNW 4.6 mph - N/A   Overcast
11:15 PM 67.1 °F 56.8 °F 70% 29.89 in 10.0 mi WNW 3.5 mph - N/A   Mostly Cloudy
11:35 PM 65.7 °F 57.0 °F 74% 29.90 in 10.0 mi NNW 3.5 mph - N/A   Scattered Clouds
11:55 PM 65.3 °F 56.7 °F 74% 29.90 in 10.0 mi NW 4.6 mph - N/A   Clear